TimePDT,TemperatureF,Dew PointF,Humidity,Sea Level PressureIn,VisibilityMPH,Wind Direction,Wind SpeedMPH,Gust SpeedMPH,PrecipitationIn,Events,Conditions,WindDirDegrees,DateUTC
12:53 AM,41.0,36.0,82,30.50,10.0,Calm,Calm,-,N/A,,Partly Cloudy,0,2013-03-10 08:53:00
1:53 AM,37.9,34.0,86,30.51,10.0,Calm,Calm,-,N/A,,Partly Cloudy,0,2013-03-10 09:53:00
3:53 AM,39.0,35.1,86,30.50,10.0,East,3.5,-,N/A,,Mostly Cloudy,90,2013-03-10 10:53:00
5:53 AM,37.9,35.1,89,30.51,10.0,Calm,Calm,-,N/A,,Overcast,0,2013-03-10 12:53:00
6:53 AM,37.9,35.1,89,30.50,10.0,East,4.6,-,N/A,,Overcast,100,2013-03-10 13:53:00
7:53 AM,39.0,34.0,82,30.50,10.0,East,4.6,-,N/A,,Overcast,100,2013-03-10 14:53:00
8:53 AM,39.9,36.0,86,30.50,10.0,Calm,Calm,-,N/A,,Overcast,0,2013-03-10 15:53:00
9:53 AM,42.1,36.0,79,30.50,10.0,Calm,Calm,-,N/A,,Overcast,0,2013-03-10 16:53:00
10:53 AM,43.0,37.0,80,30.50,10.0,East,3.5,-,N/A,,Overcast,80,2013-03-10 17:53:00
11:53 AM,44.1,37.0,76,30.49,10.0,NNE,3.5,-,0.00,Rain,Light Rain,30,2013-03-10 18:53:00
12:53 PM,46.0,37.9,73,30.48,10.0,ENE,3.5,-,0.00,,Overcast,70,2013-03-10 19:53:00
1:53 PM,46.9,39.9,77,30.47,10.0,ENE,3.5,-,0.00,,Overcast,60,2013-03-10 20:53:00
2:53 PM,46.9,39.9,77,30.45,10.0,ENE,3.5,-,N/A,,Overcast,60,2013-03-10 21:53:00
3:53 PM,48.0,39.9,74,30.45,10.0,Calm,Calm,-,0.00,,Light Drizzle,0,2013-03-10 22:53:00
4:34 PM,48.2,39.2,71,30.45,10.0,Calm,Calm,-,0.00,,Overcast,0,2013-03-10 23:34:00
4:53 PM,46.9,39.9,77,30.45,10.0,NW,3.5,-,0.00,,Overcast,310,2013-03-10 23:53:00
5:53 PM,48.0,42.1,80,30.44,9.0,WNW,4.6,-,0.00,,Light Drizzle,290,2013-03-11 00:53:00
6:53 PM,46.9,43.0,86,30.44,9.0,WNW,4.6,-,0.00,,Overcast,300,2013-03-11 01:53:00
7:53 PM,46.0,43.0,89,30.45,10.0,WNW,4.6,-,N/A,,Overcast,300,2013-03-11 02:53:00
8:53 PM,46.0,43.0,89,30.44,10.0,West,3.5,-,N/A,,Overcast,260,2013-03-11 03:53:00
9:11 PM,46.4,42.8,87,30.44,10.0,West,3.5,-,N/A,,Overcast,260,2013-03-11 04:11:00
9:53 PM,46.0,41.0,83,30.44,10.0,Calm,Calm,-,N/A,,Overcast,0,2013-03-11 04:53:00
10:53 PM,45.0,41.0,86,30.45,10.0,NW,4.6,-,N/A,,Overcast,310,2013-03-11 05:53:00
11:53 PM,46.0,42.1,86,30.44,10.0,West,3.5,-,N/A,,Overcast,260,2013-03-11 06:53:00
12:53 AM,46.0,42.1,86,30.43,10.0,Calm,Calm,-,N/A,,Overcast,0,2013-03-11 07:53:00